Location: Newark
(25.4800°N, 85.7200°E)
Time: 00:50:37
(UTC+00:00)

Explorer 11/Cluster Stage 4 - Pass Details

Date: 20 August 2019
Orbit: 467 x 1259 km, 28.8° (Epoch: 22 October)

Event Time Altitude Azimuth Distance (km) Brightness Sun altitude
Rises 12:17:13 0° 277° (W) 3,532 12.7 6.1°
Reaches altitude 10° 12:20:29 10° 265° (W) 2,429 11.0 5.3°
Maximum altitude 12:25:01 24° 212° (SSW) 1,452 8.3 4.3°
Drops below altitude 10° 12:28:50 10° 158° (SSE) 2,012 8.4 3.5°
Sets 12:31:18 0° 144° (SE) 2,801 9.0 3.0°
